Preview of NWS' New Version of Forecast
This preview is not operational and should not be used for support decisions.

Regional Weather Roundup (RWR)

Issued by National Weather Service (NWS)

                            
000
ASUS43 KLSX 220707
RWRMO 

WEATHER SUMMARY FOR MISSOURI
NATIONAL WEATHER SERVICE SPRINGFIELD MO
200 AM CDT WED MAY 22 2019

NOTE: "FAIR" INDICATES FEW OR NO CLOUDS BELOW 12,000 FEET WITH NO
       SIGNIFICANT WEATHER AND/OR OBSTRUCTIONS TO VISIBILITY.
       CURRENT SKY AND/OR WEATHER CONDITIONS ARE NOT AVAILABLE FOR
       CHILLICOTHE AND FARMINGTON.

MOZ001>031-035>038-043-044-053-054-220800-
...NORTHERN AND WESTERN MISSOURI...
  
CITY           SKY/WX    TMP DP  RH WIND       PRES   REMARKS
KANSAS CTY INT CLEAR     61  54  77 S14G24    29.51R                  
KANSAS C DTWN  CLEAR     62  54  74 S8        29.52R                  
LEE'S SUMMIT   CLEAR     60  53  77 S15G25    29.54R                  
ST JOSEPH      CLEAR     62  51  67 S17G30    29.47R                  
CHILLICOTHE      N/A     61  53  75 S9        29.55R                  
KIRKSVILLE     CLEAR     56  55  97 SE15      29.61S                  
     
$$
MOZ066>068-077>081-088>096-101>105-220800-
...SOUTHWEST MISSOURI...
  
CITY           SKY/WX    TMP DP  RH WIND       PRES   REMARKS
SPRINGFIELD    CLEAR     57  52  83 S16       29.68R                  
JOPLIN         CLEAR     63  54  72 S17G28    29.61R                  
BRANSON        MOCLDY    55  52  88 S9        29.73S                  
               
$$
MOZ032>034-039>042-045>050-055>058-069>072-220800-
...CENTRAL MISSOURI...  
  
CITY           SKY/WX    TMP DP  RH WIND       PRES   REMARKS
COLUMBIA       PTCLDY    56  52  86 SE10      29.67S                  
JEFFERSON CITY CLEAR     57  53  86 E7        29.68S                  
ROLLA          CLEAR     57  52  83 S10       29.73R                  
SEDALIA        CLEAR     56  51  84 S15       29.62R                  
WHITEMAN AFB   CLEAR     59  55  88 S14G22    29.54S                  
WARRENSBURG    CLEAR     59  52  77 SE10G17   29.57S                  
OSAGE BEACH    PTCLDY    56  54  93 S8        29.69S                  
               
$$
MOZ051-052-059>065-220800-
...EAST CENTRAL MISSOURI...
  
CITY           SKY/WX    TMP DP  RH WIND       PRES   REMARKS
ST LOUIS INTL  MOCLDY    61  57  87 SE10      29.75R                  
SPIRIT OF STL  MOCLDY    60  57  89 SE3       29.73S                  
ST CHARLES     CLOUDY    61  58  90 SE10      29.75R                  
                   
$$
MOZ072>076-082>087-097>100-106>115-220800-
...SOUTH CENTRAL AND SOUTHEAST MISSOURI...
  
CITY           SKY/WX    TMP DP  RH WIND       PRES   REMARKS
CAPE GIRARDEAU TSTM      62  59  90 SW9G21    29.85S FOG              
FARMINGTON     CLOUDY    59  58  96 S8        29.79S                  
POPLAR BLUFF   CLOUDY    61  60  97 S12       29.81F                  
WEST PLAINS    CLOUDY    57  54  89 S5        29.79R                  
                                       
$$